Retour au catalogue

FREGAT R/B

ActifHEO
NORAD 43688·ROCKET BODY·🇷🇺 Russia

Lancé Nov 3, 2018 depuis Plesetsk Cosmodrome

Loading…

Prochains Passages (prochaines 24 heures)

TLE

FraisSource: Space-Track

Époque: Sep 13, 2026, 12:12 UTC

1 43688U 18086B   26256.50881517  .00000016  00000-0  00000-0 0  9995
2 43688  64.2169 193.8094 0063434 130.5487 229.9986  2.08703164 59663

Suivez FREGAT R/B en temps réel avec AllMySat

Download on the App Store